STARLINK-5925 (55945 NORAD) Tracking and Keplerian Element Data

This shows tracking and keplerian element data for the satellite.

Feedback or suggestion? Click here.




ElementValue
Catalog55945
NameSTARLINK-5925
Epoch Orbit794
Epoch Day126.16696592
Epoch Year2023
RAAN42.1806
Inclination70.0006
Eccentricity0.0003672
Argument of Perigee266.8756
Mean Anonmoly93.2019
Mean Motion15.6993243
Decay Rate2.084E-05
L11 55945U 23037AH 23126.16696592 .00002084 00000+0 19093-4 0 9990
L22 55945 70.0006 42.1806 0003672 266.8756 93.2019 15.69932430 7948



Live tracking and technical data element details for STARLINK-5925 (NORAD 55945). STARLINK-5925 can be tracked NOW for your location showing map with azimuth and elevation plus other details from your city location.







IsCatalogInMostPopularTable: catalog: 55945, numindb: 12
Update: records affected: 1



GetName: 55945 STARLINK-5925

Hit Count: updated at: Tue, 06 Jun 2023 04:05:21 GMT